STARLINK-32926, 63025

Orbit data source: Space-Track

STARLINK-32926, 63025 is a payload satellite owned by SpaceX/Seattle (US) in LEO that was launched on Sat, 15 Feb 2025 UTC via an FALCON 9 launch vehicle from the Air Force Eastern Test Range (AFETR). Payload-class satellites include a variety of spacecraft equipped with specific instruments for various scientific and technological missions. These include communications satellites like Starlink; space stations such as the ISS; scientific satellites like the Hubble; Earth observation satellites from companies like Planet Labs, Umbra, and HawkEye 360; GPS; miniature CubeSats for education and research; and military/defense satellites.

Loading next visibility...
Identifier
63025, 2025-032W
Orbit
LEO
Country
Flag of USUS
Related business
Manufacturer
SpaceX/Seattle
Mission
Operational Commercial Communications
Bus & Motor
STARLINK V2M, Unknown motor
Mass
730 kg wet, ~700 kg dry
Launch date (UTC)
2025-02-15 (1 year ago)
Launch vehicle
FALCON 9
Launch site
Air Force Eastern Test Range (AFETR)
Object type
Payload
Rocket body
Debris
Shape & HBR
Box + 2 Pan, 17.7 m
Radar Cross Section
33.884 m², Large (>1 m²)

Expand to show TLE details & history
Last TLE update: 17 hours ago

TLE from 17 hours ago
0 STARLINK-32926
1 63025U 25032W   26171.28202003  .00024125  00000-0  88292-3 0  9998
2 63025  42.9986 116.3552 0000789 270.5472  89.5290 15.27595646 76310
Epoch: 2026-06-20T06:46Z
TLE epoch observation values (Epoch: 2026-06-20T06:46:06.530Z)
Latitude
0.00003°
Longitude
106.32914°
Altitude
482.773 km
Speed
7.626 km/s
True Right ascension
07h 45m 25s
True Declination
0° 00' 00"
Sunlit
Object was in daylight at epoch
Visualization orbit readout
Latitude
Unknown
Longitude
Unknown
Altitude
Unknown
Speed
Unknown
Apparent Right ascension
Unknown
Apparent Declination
Unknown
Sunlit
N/A
Visualization observer readout
Local Sidereal Time
10:17:58
Azimuth
Unknown
Elevation
Unknown
Doppler factor
Unknown
Orbital elements
Apogee altitude
485.489 km
Perigee altitude
484.406 km
Semi-major axis
6,863.085 km
Eccentricity
0.00008
Inclination
42.9986°
RAAN
116.3552°
Arg. of periapsis
270.5472°
True anomaly
89.53804°
Mean anomaly
89.529°
Eccentric anomaly
89.53352°
Mean motion
3.81737 °/min
Orbital period
94.31 mins
BSTAR
0.00088292
Loading maneuver chart data...
Computing Atmospheric mass density...
Loading historical data...
Loading historical data...
Loading historical data...
Loading historical data...
Loading historical data...
Loading historical data...
Loading historical data...

Documentation

Showing up to 5 results
|